Погода в Кошице

Словакия     48°43′00″N   21°15′29″E
темп.,
°C
ветер,
м/с
пор.,
м/с
влажн.,
%
обл.,
%
осадки,
мм/ч
давл.,
гПа
погр.,
м
15 июня, вт
вт1523:00+12с410785 0.0 1019231
02:00+10ссз47860 0.0 1020115
05:00+10ссз48842 0.0 1019143
08:00+16с46660 0.0 1019459
11:00+21ссв34570 0.0 10181128
14:00+23ссв345035 0.0 10171728
17:00+23ссв455661 0.0 10161359
20:00+17с3578100 0.0 1016119
16 июня, ср
ср1623:00+14ссз3687100 0.0 1017102
02:00+13ссз378869 0.0 1017112
05:00+12ссз47895 0.0 1017124
08:00+18с48654 0.0 1018606
11:00+22ссв57535 0.0 10171339
14:00+24ссв56464 0.0 10161855
17:00+24с56530 0.0 10161173
20:00+19ссв48761 0.0 1017244
17 июня, чт
чт1723:00+15с47955 0.0 1018126
02:00+14ссз47955 0.0 1019144
05:00+13с47965 0.0 1019130
08:00+19с4573100 0.0 1019393
11:00+24св34555 0.0 10191237
14:00+26в3448100 0.0 10181705
17:00+26вюв245093 0.0 10181471
20:00+21ссв3675100 0.1 1018159
18 июня, пт
пт1823:00+17ссз358798 0.0 101977
02:00+16с3594100 0.0 101973
05:00+16с349269 0.0 101959
08:00+22с23695 0.0 1019291
11:00+26всв22519 0.0 10181161
14:00+28в23443 0.0 10171698
17:00+29вюв13435 0.0 10161716
20:00+22всв357417 0.0 1016100
19 июня, сб
сб1923:00+18с34904 0.0 101856
02:00+17ссв22943 0.0 101822
05:00+16с11930 0.0 101812
08:00+21юв11730 0.0 1018379
11:00+25ю32580 0.0 10181043
14:00+27ю43463 0.0 10171765
17:00+26ю22481 0.0 10161101
20:00+21ю11695 0.0 101611